Location: DaltonSkyGazer Observatory
(42.4858°N, 73.1565°W)
Time: 16:05:11
(UTC-04:00)

Daily predictions for brighter satellites

Satellite Brightness Start Highest point End
(mag) Time Altitude Azimuth Time Altitude Azimuth Time Altitude Azimuth
Meteor 1-23 Rocket 4.3 20:42:34 10° S 20:48:11 71° E 20:53:54 10° NNE
SPOT 5 3.7 20:46:45 10° SE 20:50:34 30° ENE 20:54:20 10° N
H-2A R/B 2.2 20:46:57 10° SSE 20:51:08 60° ENE 20:55:27 10° N
Cosmos 1603 4.2 20:46:09 10° S 20:51:17 38° ESE 20:56:26 10° NE
Lacrosse 5 rocket 2.8 20:47:52 10° WSW 20:51:31 40° NW 20:55:22 10° NE
ALOS 2.9 20:48:08 10° S 20:52:44 59° W 20:57:21 10° NNW
Meteor 2-9 Rocket 4.3 20:49:29 10° N 20:55:11 73° E 21:00:58 10° SSE
CZ-4 DEB 4.2 20:54:04 10° S 20:57:07 39° W 21:00:11 10° NNW
Cosmos 1626 Rocket 4.0 20:55:14 10° SSE 20:59:25 42° E 21:03:35 10° NNE
Lacrosse 5 4.4 20:56:13 10° WNW 21:00:15 23° NNW 21:04:18 10° NNE
Cosmos 494 Rocket 4.1 20:55:09 10° SSW 21:00:16 81° WNW 21:05:25 10° NNE
CZ-4 SHROUD 4.2 20:59:12 10° SE 21:02:03 32° ENE 21:04:56 10° N
Meteor 2-4 Rocket 4.0 20:59:23 10° S 21:05:15 83° W 21:11:15 10° N
Cosmos 2228 3.1 21:01:38 10° N 21:06:04 83° E 21:10:28 10° S
YAOGAN 6 4.3 21:05:19 10° ESE 21:08:09 21° ENE 21:11:00 10° NNE
Cosmos 1943 4.2 21:10:30 10° SSE 21:15:00 25° ESE 21:19:33 10° NE
Cosmos 1943 Rocket 4.3 21:15:28 10° NNE 21:18:27 14° NE 21:21:27 10° ENE
Nimbus 7 Rocket 4.4 21:12:46 10° NNE 21:18:45 70° ESE 21:24:37 10° S
H-2A R/B 4.0 21:17:54 10° E 21:20:32 15° ENE 21:23:14 10° NNE
Okean 2 4.3 21:16:48 10° SSW 21:20:53 52° W 21:24:59 10° N
UNK 4.5 21:19:25 10° NNE 21:24:42 50° ESE 21:30:13 10° S
PSLV R/B 3.2 21:22:51 13° SSE 21:25:29 67° ENE 21:28:36 10° N
Aureole 2 Rocket 3.6 21:22:53 10° SW 21:26:41 50° WNW 21:30:09 10° N
Lacrosse 4 Rocket 3.0 21:26:48 14° ESE 21:27:28 15° ESE 21:29:49 10° ENE
SPOT 1/Viking Rocket 4.1 21:24:42 14° SE 21:28:51 42° ENE 21:33:41 10° N
SeaSat 1 2.5 21:24:32 13° SE 21:28:56 74° ENE 21:33:52 10° NNW
CZ-4B R/B 3.7 21:31:55 10° NNE 21:36:53 51° E 21:41:56 10° S
Cosmos 1238 4.2 21:35:16 14° S 21:37:53 58° E 21:40:51 10° NNE
CZ-2C R/B 3.6 21:38:44 10° WSW 21:39:39 12° W 21:40:32 10° WNW
DEBRIS 3.4 21:40:08 10° WNW 21:44:33 34° SW 21:45:47 21° S
Cosmos 1461 3.9 21:42:39 10° NW 21:46:38 38° WSW 21:49:44 14° S
ATLAS 3B R/B 3.2 21:44:08 10° S 21:51:23 46° ESE 21:58:30 10° NE
Tsikada Rocket 4.3 21:46:21 10° SSW 21:52:45 73° W 21:59:10 10° N
ARGOS 3.3 21:51:45 20° SE 21:55:27 59° ENE 22:00:48 10° N
Cosmos 2369 Rocket 2.4 21:52:31 10° NNW 21:58:10 62° ENE 22:01:40 23° SE
USA 234 3.3 22:01:10 21° SE 22:05:54 89° SW 22:12:31 10° NW
Atlas Centaur 2 3.6 22:01:37 10° SW 22:08:26 34° S 22:12:43 22° SE
Cosmos 1825 Rocket 3.5 22:05:59 19° S 22:09:11 81° E 22:13:38 10° N
Envisat 4.2 22:05:47 10° SSW 22:10:29 38° W 22:15:14 10° NNW
NOAA 11 4.2 22:08:02 24° SSE 22:11:22 75° ENE 22:16:48 10° N
CZ-4C R/B 3.6 22:10:25 31° SE 22:12:16 59° ENE 22:16:17 10° N
Cosmos 407 Rocket 3.6 22:11:19 21° S 22:14:39 54° ESE 22:19:45 10° NNE
ISS -3.1 22:14:10 10° WSW 22:17:26 72° NNW 22:20:42 10° NE
SL-27 R/B 4.5 22:21:09 15° ENE 22:21:09 15° ENE 22:22:13 10° NE
Cosmos 2142 Rocket 4.5 22:13:34 10° N 22:19:55 88° W 22:24:04 23° S
CZ-4 R/B 3.9 22:15:24 10° NNE 22:20:25 89° ESE 22:24:19 17° SSW
PSLV R/B 3.3 22:18:36 10° WSW 22:22:08 67° S 22:22:59 46° ESE
SL-08 RB Rocket 3.6 22:21:16 31° SSE 22:23:28 90° W 22:28:01 10° NNW
Cosmos 2263 4.2 22:18:36 10° NNW 22:24:13 72° ENE 22:26:58 31° SE
COSMOS 2406 4.2 22:27:27 25° ESE 22:28:03 26° ESE 22:32:40 10° NE
SPOT 5 4.5 22:25:01 10° SSW 22:28:39 25° W 22:32:15 10° NW
USA 238 DEB 4.4 22:26:24 27° SE 22:28:41 33° ESE 22:34:52 10° NE
USA 238 4.4 22:26:35 27° SE 22:28:47 33° ESE 22:34:57 10° NE
Meteor 1-22 Rocket 4.2 22:23:40 10° N 22:29:15 87° W 22:32:25 28° S
Landsat 7 3.8 22:27:37 35° SSE 22:29:38 76° ENE 22:34:24 10° N
Cosmos 1953 3.2 22:26:39 10° NNE 22:30:16 32° ENE 22:30:51 31° E
Cosmos 1634 Rocket 4.2 22:24:22 10° NNW 22:30:31 70° W 22:34:40 22° S
Spot 4 4.4 22:30:07 32° ESE 22:31:47 45° ENE 22:36:20 10° N
COSMOS 2455 3.6 22:26:23 10° SW 22:32:14 53° NW 22:38:09 10° NNE
Cosmos 1954 Rocket 4.3 22:32:27 35° SSE 22:34:10 47° ESE 22:39:14 10° NNE
YAOGAN 6 4.4 22:39:45 18° SW 22:41:35 27° W 22:44:48 10° NW
Terra 1.8 22:43:54 43° SSE 22:45:26 77° ENE 22:50:13 10° N
Cosmos 1346 Rocket 3.7 22:48:52 24° SW 22:50:49 44° WNW 22:54:37 10° N
IGS 5A 3.3 22:51:07 57° SSE 22:51:55 81° ENE 22:56:06 10° N
Cosmos 2279 Rocket 4.0 22:47:39 10° N 22:53:55 79° W 22:56:57 33° S
Cosmos 2084 4.1 22:53:00 10° NNW 22:57:00 46° NE 22:57:57 39° E
Cosmos 1943 4.1 22:53:15 10° SW 22:58:43 48° WNW 23:04:15 10° NNE
H-2A R/B 2.0 22:57:40 43° S 22:59:18 75° WSW 23:04:23 10° NNW
Geosat 4.3 22:57:37 10° NNE 23:02:37 65° WNW 23:06:36 16° SW
Cosmos 1943 Rocket 2.1 22:57:32 10° NNW 23:03:06 81° ENE 23:04:49 46° SE
Cosmos 1842 3.4 23:04:01 56° SW 23:04:40 69° W 23:08:36 10° N
SAR-Lupe-2 4.1 23:05:25 46° WSW 23:05:40 47° W 23:09:08 10° NNW
Lacrosse 4 Rocket 2.2 23:03:03 18° SW 23:05:45 47° WNW 23:09:45 10° NNE
Cosmos 1932 4.3 23:03:15 31° SSW 23:06:19 71° ESE 23:12:32 10° NE
Cosmos 2221 4.3 23:04:36 10° NNE 23:07:41 19° ENE 23:07:58 19° ENE
Cosmos 1570 Rocket 4.2 23:02:51 10° NNW 23:08:11 61° ENE 23:09:35 46° ESE
Cosmos 1850 Rocket 4.2 23:09:59 48° ESE 23:10:30 49° ESE 23:15:33 10° NNE
Cosmos-2242 3.2 23:06:29 10° NNW 23:10:53 68° W 23:11:38 55° SSW
Cosmos 1607 4.2 23:12:49 44° SE 23:13:48 47° ESE 23:19:45 10° NE
Cosmos 1758 3.3 23:11:55 10° NNW 23:16:02 75° W 23:16:19 71° SW
Cosmos 1656 Rocket 4.1 23:12:38 10° NNW 23:18:13 53° ENE 23:19:52 40° ESE
Okean 3 Rocket 4.3 23:23:14 40° E 23:23:14 40° E 23:27:03 10° NNE
DMSP B5D2-2 4.4 23:18:42 10° N 23:23:55 61° WNW 23:26:13 33° SW
Meteor 2-5 Rocket 4.2 23:23:06 43° ESE 23:24:02 46° E 23:29:34 10° NNE
Cosmos 1023 Rocket 4.4 23:22:55 53° SSW 23:24:12 85° ESE 23:29:31 10° NNE
Cosmos 1140 Rocket 3.4 23:28:55 52° SSW 23:30:16 85° WNW 23:35:33 10° NNE
Cosmos 1733 4.2 23:28:29 10° N 23:31:40 38° ENE 23:31:40 38° ENE
Cosmos 2369 Rocket 4.0 23:37:46 10° WNW 23:41:37 19° W 23:43:27 16° WSW
ATLAS 3B R/B 3.8 23:34:49 10° WSW 23:42:11 47° NW 23:49:22 10° NNE
COSMOS 2487 3.8 23:47:20 36° NE 23:47:20 36° NE 23:49:37 10° NNE
ALOS 2 3.5 23:46:16 36° ENE 23:46:24 36° ENE 23:50:26 10° N
NOSS 3-2 (A) 3.9 23:47:21 43° ESE 23:47:26 43° ESE 23:53:34 10° NE
USA 234 4.5 23:48:30 23° SW 23:49:26 24° SW 23:54:34 10° WNW
ISS -0.5 23:51:47 10° WNW 23:54:18 20° NNW 23:56:50 10° NE
Cosmos 1470 3.2 23:50:33 10° NNW 23:53:49 59° NNW 23:53:49 59° NNW
SL-27 R/B 4.4 23:54:51 23° WNW 23:55:00 23° WNW 23:57:46 10° N
